RH
100 100 100 100 100 100 100 98 83 94 71 82 69 58 42 30 29 30 34 30 30 33 40 35 34 36 48 97 66 92 96 100 100 86 61 43 34 34 44 63 82 94 100 100 100
100 100 100 100 100 100 93 76 58 46 71 93 76 49 47 37 26 31 38 42 36 36 34 33 42 56 52 73 63 74 94 98 98 70 58 48 34 33 31 37 83 100 88 94 81
100 100 100 100 100 100 88 59 39 39 96 100 86 50 53 58 51 47 62 60 49 38 41 42 46 50 55 54 65 96 100 94 94 68 62 52 38 33 32 34 44 95 94 100 100
100 100 100 100 100 100 88 55 39 67 99 82 66 61 58 79 69 64 73 70 60 50 44 48 50 42 47 54 74 84 99 82 94 77 64 56 42 36 26 33 27 75 100 100 100
100 100 100 100 100 100 97 72 53 57 71 66 58 61 81 85 89 85 81 83 88 73 65 53 52 47 53 65 61 73 78 76 92 84 58 51 39 38 31 28 26 40 98 100 100
96 100 97 90 97 100 100 100 61 51 55 57 70 73 81 90 92 96 87 93 99 90 98 75 59 61 63 66 64 57 64 77 71 81 61 49 42 40 37 31 28 30 46 95 100
39 42 55 55 66 56 72 100 45 33 49 55 63 64 77 64 85 75 72 75 93 89 89 66 55 52 60 58 47 50 59 56 73 78 63 48 45 43 36 29 26 24 36 70 100
36 38 34 41 42 38 40 76 57 43 29 42 56 57 59 94 72 70 65 67 66 90 88 89 59 42 65 95 92 67 55 56 53 52 68 45 45 44 38 29 32 32 28 42 77
54 68 51 43 43 44 43 87 79 47 38 26 46 67 69 89 90 82 93 69 58 63 95 100 79 45 46 97 100 77 47 37 66 71 54 45 43 50 44 28 35 38 33 51 72
83 90 83 65 48 51 46 49 79 80 68 30 59 74 86 88 99 100 100 89 58 50 66 95 100 75 75 42 81 100 86 54 49 72 60 50 43 52 48 38 37 34 42 78 98
91 87 100 89 72 71 68 53 78 57 61 58 51 100 100 100 100 100 100 100 90 56 52 65 75 74 75 52 38 55 100 95 70 87 70 53 49 64 68 60 48 30 37 48 99
95 100 100 100 99 83 81 69 85 100 100 100 80 79 100 100 99 100 99 79 80 78 64 55 67 82 61 50 63 49 41 100 100 100 69 62 69 79 91 75 47 34 34 34 57
100 100 100 100 100 100 100 93 80 97 98 100 100 96 100 100 76 81 100 99 74 59 82 87 92 90 74 58 45 47 55 53 100 100 100 100 93 83 66 64 46 51 35 38 40
100 100 96 94 85 100 100 100 100 100 98 86 99 100 100 100 84 68 100 100 89 63 58 78 100 100 97 81 75 54 48 54 54 100 100 100 100 100 100 100 85 45 30 35 34
100 100 100 100 84 86 100 100 99 99 100 90 90 82 72 86 94 68 99 100 98 90 74 88 94 100 100 100 95 57 53 60 50 90 100 100 96 100 100 100 100 77 56 49 50
97 96 98 94 100 100 100 100 100 95 89 87 76 63 66 82 77 80 90 98 99 81 78 93 91 78 100 100 100 100 56 67 70 49 84 100 100 100 100 100 100 100 83 68 56
69 58 39 65 64 47 62 72 86 95 99 98 100 97 100 95 78 67 71 63 56 64 56 81 88 87 80 69 87 100 92 47 82 68 49 93 100 100 99 100 100 100 100 89 84
65 62 46 45 55 49 42 42 42 47 58 56 60 63 61 75 78 75 89 86 94 98 91 52 37 68 61 57 52 58 81 56 65 90 72 66 56 100 99 79 100 100 100 100 100
100 95 86 64 72 84 66 57 57 59 68 66 65 56 55 64 67 66 60 63 65 82 100 89 100 54 46 48 50 43 48 59 59 97 93 80 57 59 96 84 73 91 100 100 100
100 96 91 100 100 97 99 100 100 97 90 86 86 74 73 55 52 59 61 53 50 47 48 57 56 100 100 94 67 56 55 57 63 76 98 100 100 87 60 87 88 60 69 99 100
97 100 100 100 100 100 100 100 100 96 88 88 92 85 67 65 62 53 40 44 40 34 36 37 36 45 93 100 100 100 100 100 100 70 78 98 100 100 98 74 74 77 61 55 94
100 100 100 97 100 100 85 83 82 75 69 74 91 74 55 60 52 48 42 38 29 31 33 38 38 40 47 72 100 100 100 100 100 100 80 70 94 100 100 100 96 92 81 70 50
81 78 76 73 81 81 75 82 88 70 80 75 65 63 49 45 42 36 38 34 36 43 36 34 43 40 37 45 55 61 70 99 100 100 100 88 71 80 97 100 100 100 100 100 89
84 84 91 87 96 85 79 60 61 58 59 52 41 43 41 33 31 33 40 38 41 38 37 36 32 35 32 39 38 48 67 89 100 100 100 100 100 91 80 73 79 100 100 100 100
76 76 82 58 30 26 23 36 36 33 32 36 34 30 26 27 31 31 35 30 30 30 32 30 28 32 33 37 42 36 44 61 94 100 100 100 100 100 87 50 57 76 84 95 100
14 13 14 14 16 19 21 23 26 28 28 25 28 28 25 23 21 19 19 20 21 24 31 27 22 24 25 28 34 40 36 47 60 70 92 99 100 100 100 100 43 43 62 78 74
12 12 12 13 15 18 19 21 21 22 22 20 18 17 16 17 20 19 18 18 18 19 18 19 17 16 15 20 20 17 31 39 51 70 68 77 98 100 100 100 95 85 48 46 60
Wind_Speed
62 62 62 62 61 54 55 56 57 54 59 57 60 59 62 57 56 54 57 53 50 50 49 52 54 54 53 58 55 53 53 50 49 56 45 39 35 37 40 45 46 49 48 49 45
63 60 59 63 57 52 47 50 52 57 60 58 56 54 56 57 56 51 53 49 47 47 48 51 51 52 51 53 51 53 54 53 55 51 43 40 37 38 42 44 48 53 53 52 49
55 57 60 58 58 55 50 50 49 50 53 52 55 52 52 53 55 51 50 50 51 49 49 49 49 47 51 52 51 50 53 50 53 50 45 42 40 35 42 43 47 52 53 52 47
55 53 55 54 54 49 48 49 49 49 45 47 51 51 53 51 53 51 52 52 51 49 49 50 51 50 49 48 49 51 55 52 51 45 46 43 43 39 35 47 45 53 55 53 52
53 55 58 59 59 55 53 52 51 52 44 42 45 49 51 54 51 46 50 50 50 49 49 50 50 50 48 49 48 49 53 51 49 50 49 44 44 39 36 45 41 48 55 55 54
61 63 62 64 63 61 59 59 56 54 46 40 37 41 42 45 39 42 42 47 50 49 51 49 49 49 48 51 52 52 52 53 54 52 47 44 43 40 42 36 38 46 51 57 57
56 58 63 60 58 62 64 59 56 57 53 54 49 47 39 51 47 49 47 49 47 51 49 48 48 47 50 53 52 50 49 53 52 50 45 45 42 41 43 41 40 40 48 52 54
55 52 57 60 58 62 64 62 59 62 56 60 56 52 52 56 53 54 55 58 57 52 52 50 49 48 48 50 48 48 48 50 52 48 47 46 41 45 47 46 43 42 48 52 51
63 63 59 60 69 71 70 65 65 58 61 60 61 62 59 61 65 66 68 66 66 60 55 50 53 49 50 53 48 50 49 48 53 51 48 45 44 46 49 48 47 41 45 50 50
70 71 64 69 67 70 72 71 69 69 67 66 73 64 69 68 73 73 76 77 73 67 62 58 54 54 57 56 51 50 51 53 53 56 52 47 48 49 50 50 54 49 43 46 48
72 77 78 73 70 76 73 77 73 73 71 68 67 70 70 76 75 86 84 78 76 78 72 68 64 60 65 61 57 54 52 53 55 58 51 49 50 52 54 55 57 57 48 50 47
83 81 84 83 78 78 80 75 78 77 75 80 78 80 77 83 84 86 84 77 76 75 77 74 66 69 67 68 64 57 56 55 59 63 54 50 52 55 55 54 56 57 58 53 56
87 86 87 88 88 86 87 90 84 86 91 88 85 88 95 90 86 88 83 82 79 77 78 72 68 75 73 72 71 67 61 59 60 62 57 50 49 57 52 56 57 59 58 55 53
96 94 94 94 94 93 96 96 95 97 99 98 98 97 98 98 96 93 91 85 84 82 81 78 76 77 78 77 76 71 72 65 63 64 61 62 54 53 59 60 58 58 56 58 57
105 105 101 106 100 99 102 103 104 107 106 104 100 101 102 98 94 92 91 92 89 86 87 81 80 83 81 79 82 73 75 74 68 69 68 65 64 52 57 63 65 61 58 59 59
108 109 110 108 109 108 105 106 107 110 110 108 106 100 98 98 99 96 94 95 92 91 85 89 88 84 87 87 86 82 80 78 79 73 69 70 70 60 61 61 64 66 62 61 62
114 110 105 107 108 108 110 108 110 108 105 107 106 100 98 100 101 101 103 98 97 92 90 90 95 96 93 92 89 86 84 84 86 83 69 78 75 70 70 64 65 64 65 66 65
117 117 114 111 113 114 111 111 108 104 104 102 103 106 104 105 105 100 101 101 100 101 99 94 92 92 93 96 94 92 91 87 88 88 84 85 74 81 75 76 70 66 62 66 66
131 128 129 126 124 121 119 114 112 115 114 114 116 113 112 115 113 109 106 105 100 99 104 99 98 97 96 93 90 83 91 90 92 91 94 90 82 82 82 82 83 76 70 65 64
128 126 123 122 123 123 123 119 122 127 130 129 132 130 126 122 113 109 106 107 102 102 101 98 97 106 104 96 100 102 92 88 89 96 97 87 83 88 87 83 85 85 82 78 74
119 119 122 127 132 129 131 138 139 138 137 136 136 135 129 121 117 113 110 107 103 102 100 100 99 96 110 113 113 106 104 102 99 94 95 94 90 91 89 90 88 87 87 86 85
138 142 145 139 143 140 143 145 140 143 139 135 133 133 123 122 116 112 108 108 102 102 99 97 98 94 97 107 113 118 117 113 113 114 103 98 99 97 94 93 92 92 90 88 90
146 144 145 140 137 140 140 137 136 138 139 133 127 122 115 114 111 106 105 103 97 93 94 92 91 89 86 97 103 109 111 111 114 113 113 110 99 100 96 97 95 97 96 95 92
145 140 144 143 144 140 138 136 132 130 125 124 116 113 111 107 103 98 98 98 94 91 87 89 86 88 86 93 99 106 109 112 116 110 113 116 113 105 98 104 108 102 100 100 97
139 137 140 139 134 127 123 121 118 116 111 109 106 106 103 98 98 96 93 89 85 86 86 85 81 83 78 85 92 95 102 110 116 112 117 113 117 108 113 107 107 110 111 107 105
113 113 113 111 108 107 106 105 104 104 103 101 99 96 94 91 89 86 82 80 78 79 81 82 77 78 78 85 92 94 93 99 110 115 117 116 122 106 110 112 109 115 113 114 112
99 99 97 97 95 95 93 94 94 94 94 92 90 87 84 82 79 78 77 75 76 76 78 80 81 82 82 90 96 94 89 98 104 107 119 126 122 118 119 125 124 113 113 121 121
Wind_Direction
268 270 274 276 276 272 274 277 278 280 284 284 284 285 288 287 286 286 285 284 282 280 274 274 274 273 270 265 268 268 266 269 270 276 278 274 263 265 259 256 257 260 263 265 268
265 271 272 273 271 276 282 284 285 287 282 287 289 290 288 289 289 290 290 287 288 282 279 274 273 271 273 270 272 270 268 268 268 277 275 267 262 262 262 260 258 256 260 263 266
264 264 266 267 268 274 279 283 287 287 286 288 290 289 286 284 288 290 286 287 287 285 281 277 277 275 274 273 272 270 271 271 270 276 274 265 263 260 258 261 261 257 260 264 266
259 262 268 270 268 276 279 282 286 283 281 286 285 283 284 285 284 285 281 280 284 283 281 276 275 277 277 272 272 270 271 271 271 273 271 264 267 273 267 257 263 259 259 263 264
257 260 263 266 269 273 275 278 279 283 283 287 285 284 281 281 279 280 282 277 278 280 277 274 274 276 277 276 271 271 272 275 273 273 272 264 266 273 270 254 262 263 259 260 264
271 265 268 269 268 268 272 278 274 277 275 275 285 285 278 279 279 277 277 281 277 276 278 279 275 277 276 275 274 273 274 275 276 269 269 261 265 271 264 268 271 269 266 262 262
268 275 271 270 269 274 271 272 273 280 278 272 278 282 285 279 277 279 279 283 279 272 274 275 278 278 277 276 278 275 275 274 270 269 265 261 269 272 274 279 275 269 267 265 263
265 277 274 267 269 277 276 268 265 270 274 273 274 282 280 282 283 284 291 291 286 276 266 269 273 275 277 276 270 271 272 274 275 274 264 262 268 272 275 275 278 280 272 266 263
265 269 274 276 270 273 275 267 260 265 281 275 274 274 279 280 284 288 290 290 289 281 274 265 268 272 275 272 271 267 270 272 275 270 264 263 265 270 274 274 279 280 273 272 268
274 263 272 269 267 269 273 271 266 263 275 277 267 275 278 278 284 284 286 286 285 282 275 273 269 267 273 271 270 270 268 270 271 268 264 260 262 267 270 271 275 275 270 266 268
275 269 267 270 268 263 270 265 264 266 267 268 266 267 272 277 281 282 280 283 284 284 276 271 272 272 265 268 270 268 268 264 263 266 265 265 261 264 264 266 269 271 269 268 266
276 270 270 269 268 263 266 266 263 265 267 265 268 263 275 279 283 283 282 280 279 280 277 271 268 264 266 267 266 269 267 264 262 264 266 266 264 262 262 264 265 267 271 266 264
273 268 266 268 269 269 263 271 265 263 266 269 267 263 273 279 280 281 277 275 275 279 274 271 268 265 265 268 268 267 267 265 260 263 264 260 261 262 260 256 261 266 267 272 268
271 271 271 269 267 267 263 265 266 265 266 269 273 277 280 278 277 278 275 276 276 275 271 269 270 267 265 265 266 269 267 265 265 258 258 260 257 260 259 259 258 259 261 268 272
269 270 269 271 274 270 268 267 270 271 272 270 271 275 273 273 273 277 272 272 274 274 272 267 266 268 270 269 266 265 266 265 264 259 253 256 256 254 257 258 259 258 259 262 267
273 273 273 274 274 273 273 272 272 273 272 271 271 270 272 272 274 275 270 271 273 271 268 266 266 262 264 267 269 268 264 265 265 260 255 251 253 249 250 258 260 258 259 258 261
277 277 274 275 277 276 276 272 270 272 273 274 272 271 276 276 275 277 276 273 273 269 267 261 263 263 263 263 265 268 268 264 262 261 259 252 250 249 247 250 255 257 258 256 257
276 278 276 276 276 277 277 277 272 271 276 276 275 273 272 279 282 276 269 271 271 274 275 269 267 258 262 264 263 264 264 262 259 260 257 257 253 250 248 247 248 254 257 257 258
277 282 284 284 285 285 285 284 282 282 282 281 280 280 279 281 282 281 274 274 269 264 266 265 269 262 266 261 257 261 261 259 260 256 257 257 255 253 249 247 248 245 248 251 252
275 276 279 278 278 278 278 278 278 279 280 281 281 283 285 283 280 279 273 272 270 268 268 265 263 257 266 265 268 266 263 256 262 256 254 253 252 254 254 247 247 249 247 247 249
270 269 271 271 271 272 274 276 278 280 280 279 281 284 283 281 282 278 274 274 273 272 269 267 265 260 255 256 258 259 262 264 264 258 254 253 251 249 250 253 253 249 249 248 246
268 270 274 275 275 275 275 275 275 277 278 276 279 281 279 280 278 278 277 276 275 273 270 268 265 259 255 254 255 256 255 255 258 263 257 257 252 252 250 249 249 252 252 249 247
271 272 270 272 273 275 274 273 274 275 276 276 277 278 278 277 277 276 275 275 273 270 269 267 263 261 255 253 250 252 252 254 254 255 257 258 253 250 251 252 249 248 248 250 249
272 271 272 272 274 275 275 274 274 275 275 276 277 276 276 275 276 276 273 272 270 270 268 265 264 262 258 255 250 246 247 248 249 249 251 255 258 256 252 252 252 248 249 249 249
270 271 270 272 272 274 275 274 275 275 275 275 276 275 275 275 274 273 271 271 270 270 269 267 265 263 256 253 251 245 244 245 246 247 246 247 252 254 257 247 250 251 249 247 247
271 269 269 270 272 272 272 273 274 274 274 275 274 274 274 273 272 271 271 271 271 269 269 265 261 256 250 250 248 245 241 241 244 245 246 246 247 247 249 254 248 248 248 249 250
270 269 268 270 271 271 271 272 273 273 273 274 274 274 274 274 273 271 270 268 267 266 263 261 257 253 249 249 248 247 242 240 240 242 244 244 244 244 246 251 253 251 249 248 250